LNI964 WAHI-WIMM

Flight info

Callsign LNI964
Flight time 2h 25m
Altitude 34000
Route CLP W17 BND W11 CKG T10 AKPER
Aircraft B738/M-SDE2E3FGHIRWXY/LB1

Departure

Time 2026-05-09 14:27
Airport Yogyakarta International Airport (WAHI)

Arrival

Time 2026-05-09 16:53
Airport Kualanamu International Airport (WIMM)
Time Latitude Longitude Altitude Speed Heading
2026-05-09 13:57 -7.90091 110.05761 39 ft 0 kts 20°
2026-05-09 14:16 -7.90108 110.05754 36 ft 4 kts 20°
2026-05-09 14:16 -7.90131 110.05745 36 ft 4 kts 21°
2026-05-09 14:17 -7.90152 110.05738 35 ft 4 kts
2026-05-09 14:17 -7.90170 110.05745 36 ft 4 kts 303°
2026-05-09 14:17 -7.90179 110.05763 37 ft 1 kts 291°
2026-05-09 14:17 -7.90180 110.05767 37 ft 0 kts 291°
2026-05-09 14:20 -7.90179 110.05762 37 ft 2 kts 291°
2026-05-09 14:20 -7.90168 110.05733 36 ft 7 kts 291°
2026-05-09 14:20 -7.90144 110.05669 38 ft 12 kts 290°
2026-05-09 14:21 -7.90069 110.05469 38 ft 16 kts 290°
2026-05-09 14:21 -7.90031 110.05367 37 ft 15 kts 290°
2026-05-09 14:21 -7.89993 110.05269 36 ft 15 kts 292°
2026-05-09 14:21 -7.89966 110.05193 37 ft 7 kts 284°
2026-05-09 14:22 -7.89985 110.05150 37 ft 8 kts 210°
2026-05-09 14:22 -7.90047 110.05125 37 ft 11 kts 200°
2026-05-09 14:22 -7.90110 110.05088 36 ft 11 kts 235°
2026-05-09 14:22 -7.90093 110.05020 37 ft 10 kts 293°
2026-05-09 14:23 -7.90069 110.04951 38 ft 11 kts 290°
2026-05-09 14:23 -7.90037 110.04865 35 ft 15 kts 290°
2026-05-09 14:23 -7.89995 110.04751 36 ft 19 kts 290°
2026-05-09 14:23 -7.89950 110.04625 40 ft 19 kts 290°
2026-05-09 14:24 -7.89905 110.04503 39 ft 18 kts 290°
2026-05-09 14:24 -7.89867 110.04403 39 ft 15 kts 290°
2026-05-09 14:24 -7.89852 110.04335 39 ft 10 kts 257°
2026-05-09 14:24 -7.89887 110.04309 40 ft 4 kts 184°
2026-05-09 14:25 -7.89901 110.04311 40 ft 0 kts 166°
2026-05-09 14:25 -7.89906 110.04312 40 ft 2 kts 166°
2026-05-09 14:26 -7.89941 110.04327 40 ft 9 kts 154°
2026-05-09 14:26 -7.90008 110.04361 42 ft 12 kts 150°
2026-05-09 14:26 -7.90058 110.04422 40 ft 12 kts 112°
2026-05-09 14:26 -7.90132 110.04623 38 ft 63 kts 110°
2026-05-09 14:27 -7.90361 110.05254 38 ft 126 kts 110°
2026-05-09 14:27 -7.90723 110.06256 49 ft 177 kts 110°
2026-05-09 14:27 -7.91184 110.07498 480 ft 196 kts 111°
2026-05-09 14:27 -7.91845 110.08730 1118 ft 207 kts 128°
2026-05-09 14:28 -7.93008 110.09691 1463 ft 226 kts 155°
2026-05-09 14:28 -7.94558 110.09882 2065 ft 234 kts 187°
2026-05-09 14:28 -7.96157 110.09480 2592 ft 239 kts 187°
2026-05-09 14:28 -7.97819 110.09315 3155 ft 241 kts 180°
2026-05-09 14:29 -7.99507 110.09306 3552 ft 244 kts 177°
2026-05-09 14:29 -8.01183 110.09364 3563 ft 240 kts 175°
2026-05-09 14:29 -8.02862 110.09449 3584 ft 244 kts 175°
2026-05-09 14:29 -8.04554 110.09349 3585 ft 246 kts 197°
2026-05-09 14:30 -8.05963 110.08384 3614 ft 256 kts 230°
2026-05-09 14:30 -8.06825 110.06729 3611 ft 275 kts 249°
2026-05-09 14:30 -8.07424 110.04895 3605 ft 276 kts 250°
2026-05-09 14:30 -8.08012 110.03045 3601 ft 276 kts 250°
2026-05-09 14:31 -8.08603 110.01201 3596 ft 277 kts 250°
2026-05-09 14:31 -8.09202 109.99354 3605 ft 277 kts 250°
2026-05-09 14:31 -8.09806 109.97506 3610 ft 278 kts 250°
2026-05-09 14:31 -8.10417 109.95648 3684 ft 282 kts 250°
2026-05-09 14:32 -8.11029 109.93796 4014 ft 283 kts 250°
2026-05-09 14:32 -8.11659 109.91892 3991 ft 280 kts 250°
2026-05-09 14:32 -8.12272 109.90042 3996 ft 276 kts 250°
2026-05-09 14:32 -8.12876 109.88215 4090 ft 276 kts 250°
2026-05-09 14:33 -8.13450 109.86386 4718 ft 277 kts 257°
2026-05-09 14:33 -8.13526 109.84463 5618 ft 274 kts 274°
2026-05-09 14:33 -8.13399 109.82532 6396 ft 276 kts 273°
2026-05-09 14:33 -8.13298 109.80582 7078 ft 280 kts 272°
2026-05-09 14:34 -8.13206 109.78607 7742 ft 284 kts 272°
2026-05-09 14:34 -8.13119 109.76602 8438 ft 287 kts 272°
2026-05-09 14:34 -8.13060 109.75231 8907 ft 290 kts 272°
2026-05-09 14:34 -8.12948 109.72514 9814 ft 295 kts 272°
2026-05-09 14:35 -8.12862 109.70424 10358 ft 303 kts 272°
2026-05-09 14:35 -8.12804 109.68980 10448 ft 318 kts 272°
2026-05-09 14:35 -8.12711 109.66678 10612 ft 338 kts 272°
2026-05-09 14:35 -8.12613 109.64246 10881 ft 353 kts 272°
2026-05-09 14:36 -8.12512 109.61750 11387 ft 358 kts 272°
2026-05-09 14:36 -8.12207 109.59248 11946 ft 362 kts 288°
2026-05-09 14:36 -8.11011 109.57014 12534 ft 365 kts 308°
2026-05-09 14:36 -8.09357 109.55065 13154 ft 366 kts 310°
2026-05-09 14:37 -8.07669 109.53127 13770 ft 368 kts 311°
2026-05-09 14:37 -8.05966 109.51188 14268 ft 371 kts 311°
2026-05-09 14:37 -8.04267 109.49260 14758 ft 374 kts 311°
2026-05-09 14:37 -8.02504 109.47260 15258 ft 377 kts 311°
2026-05-09 14:38 -8.00757 109.45278 15740 ft 380 kts 311°
2026-05-09 14:38 -7.98993 109.43274 16214 ft 384 kts 311°
2026-05-09 14:38 -7.97214 109.41250 16699 ft 387 kts 311°
2026-05-09 14:38 -7.95442 109.39236 17147 ft 390 kts 311°
2026-05-09 14:39 -7.93639 109.37185 17597 ft 393 kts 311°
2026-05-09 14:39 -7.91821 109.35116 18063 ft 396 kts 311°
2026-05-09 14:39 -7.89984 109.33025 18486 ft 398 kts 311°
2026-05-09 14:39 -7.88138 109.30925 18886 ft 401 kts 311°
2026-05-09 14:40 -7.86284 109.28815 19284 ft 403 kts 311°
2026-05-09 14:40 -7.84416 109.26690 19673 ft 405 kts 311°
2026-05-09 14:40 -7.82535 109.24551 20039 ft 408 kts 310°
2026-05-09 14:40 -7.80643 109.22399 20417 ft 411 kts 310°
2026-05-09 14:41 -7.78742 109.20237 20802 ft 413 kts 310°
2026-05-09 14:41 -7.76834 109.18068 21169 ft 416 kts 310°
2026-05-09 14:41 -7.74910 109.15881 21536 ft 418 kts 310°
2026-05-09 14:41 -7.72975 109.13682 21914 ft 420 kts 310°
2026-05-09 14:42 -7.71056 109.11501 22266 ft 422 kts 310°
2026-05-09 14:42 -7.69105 109.09285 22629 ft 424 kts 311°
2026-05-09 14:42 -7.67140 109.07053 22976 ft 426 kts 311°
2026-05-09 14:42 -7.65167 109.04811 23316 ft 429 kts 311°
2026-05-09 14:43 -7.63177 109.02552 23641 ft 431 kts 311°
2026-05-09 14:43 -7.61185 109.00291 23921 ft 433 kts 311°
2026-05-09 14:43 -7.59180 108.98015 24221 ft 434 kts 311°
2026-05-09 14:43 -7.57170 108.95733 24498 ft 436 kts 311°
2026-05-09 14:44 -7.55139 108.93428 24772 ft 438 kts 311°
2026-05-09 14:44 -7.53112 108.91127 25051 ft 439 kts 311°
2026-05-09 14:44 -7.51102 108.88847 25323 ft 441 kts 311°
2026-05-09 14:44 -7.49057 108.86527 25591 ft 442 kts 311°
2026-05-09 14:45 -7.47010 108.84205 25848 ft 444 kts 311°
2026-05-09 14:45 -7.44947 108.81866 26111 ft 446 kts 311°
2026-05-09 14:45 -7.42886 108.79528 26369 ft 448 kts 311°
2026-05-09 14:45 -7.40807 108.77172 26622 ft 449 kts 311°
2026-05-09 14:46 -7.38746 108.74835 26875 ft 451 kts 311°
2026-05-09 14:46 -7.36656 108.72467 27112 ft 453 kts 311°
2026-05-09 14:46 -7.34554 108.70084 27348 ft 454 kts 311°
2026-05-09 14:46 -7.32443 108.67692 27599 ft 456 kts 311°
2026-05-09 14:47 -7.30354 108.65326 27841 ft 458 kts 311°
2026-05-09 14:47 -7.28230 108.62920 28075 ft 459 kts 311°
2026-05-09 14:47 -7.26100 108.60509 28302 ft 461 kts 311°
2026-05-09 14:47 -7.23960 108.58085 28513 ft 462 kts 311°
2026-05-09 14:48 -7.21815 108.55656 28751 ft 464 kts 311°
2026-05-09 14:48 -7.19695 108.53257 28969 ft 465 kts 311°
2026-05-09 14:48 -7.17531 108.50808 29174 ft 467 kts 311°
2026-05-09 14:48 -7.15367 108.48359 29382 ft 468 kts 311°
2026-05-09 14:49 -7.13198 108.45905 29594 ft 469 kts 311°
2026-05-09 14:49 -7.11045 108.43469 29793 ft 471 kts 311°
2026-05-09 14:49 -7.08858 108.40995 29987 ft 472 kts 311°
2026-05-09 14:49 -7.06670 108.38521 30172 ft 474 kts 311°
2026-05-09 14:50 -7.04460 108.36022 30354 ft 474 kts 311°
2026-05-09 14:50 -7.02298 108.33578 30569 ft 474 kts 311°
2026-05-09 14:50 -7.00104 108.31098 30822 ft 473 kts 311°
2026-05-09 14:50 -6.97914 108.28623 31073 ft 472 kts 311°
2026-05-09 14:51 -6.95740 108.26166 31292 ft 472 kts 311°
2026-05-09 14:51 -6.93557 108.23700 31508 ft 472 kts 311°
2026-05-09 14:51 -6.91368 108.21226 31743 ft 471 kts 311°
2026-05-09 14:51 -6.89188 108.18764 31995 ft 470 kts 311°
2026-05-09 14:52 -6.87011 108.16306 32244 ft 469 kts 311°
2026-05-09 14:52 -6.84869 108.13886 32474 ft 469 kts 311°
2026-05-09 14:52 -6.82670 108.11403 32711 ft 469 kts 311°
2026-05-09 14:52 -6.80516 108.08972 32941 ft 468 kts 312°
2026-05-09 14:53 -6.78353 108.06531 33193 ft 467 kts 312°
2026-05-09 14:53 -6.76185 108.04083 33424 ft 467 kts 312°
2026-05-09 14:53 -6.74017 108.01637 33639 ft 467 kts 312°
2026-05-09 14:53 -6.71847 107.99189 33886 ft 466 kts 312°
2026-05-09 14:54 -6.67513 107.94301 33940 ft 469 kts 312°
2026-05-09 14:54 -6.63200 107.89437 33931 ft 467 kts 312°
2026-05-09 14:55 -6.58881 107.84568 33926 ft 464 kts 312°
2026-05-09 14:55 -6.54589 107.79731 33930 ft 463 kts 312°
2026-05-09 14:56 -6.50301 107.74899 33923 ft 462 kts 312°
2026-05-09 14:56 -6.46044 107.70103 33919 ft 463 kts 313°
2026-05-09 14:57 -6.41737 107.65254 33921 ft 465 kts 313°
2026-05-09 14:57 -6.37412 107.60386 33914 ft 467 kts 313°
2026-05-09 14:58 -6.33105 107.55539 33908 ft 469 kts 313°
2026-05-09 14:58 -6.28749 107.50636 33901 ft 470 kts 313°
2026-05-09 14:59 -6.24379 107.45721 33906 ft 471 kts 313°
2026-05-09 14:59 -6.20005 107.40803 33896 ft 472 kts 313°
2026-05-09 15:00 -6.15627 107.35880 33899 ft 472 kts 313°
2026-05-09 15:00 -6.11253 107.30964 33895 ft 472 kts 313°
2026-05-09 15:01 -6.04717 107.23621 33903 ft 470 kts 313°
2026-05-09 15:02 -6.00354 107.18720 33904 ft 470 kts 313°
2026-05-09 15:02 -5.95997 107.13827 33907 ft 469 kts 313°
2026-05-09 15:03 -5.91659 107.08957 33905 ft 467 kts 313°
2026-05-09 15:03 -5.87350 107.04121 33904 ft 466 kts 313°
2026-05-09 15:04 -5.83038 106.99283 33904 ft 464 kts 313°
2026-05-09 15:06 -5.65903 106.80068 33890 ft 461 kts 314°
2026-05-09 15:06 -5.61610 106.75257 33892 ft 461 kts 314°
2026-05-09 15:07 -5.57331 106.70464 33895 ft 463 kts 314°
2026-05-09 15:07 -5.53013 106.65627 33892 ft 464 kts 314°
2026-05-09 15:08 -5.48714 106.60813 33894 ft 466 kts 314°
2026-05-09 15:08 -5.42181 106.53499 33895 ft 469 kts 314°
2026-05-09 15:10 -5.24719 106.33960 33898 ft 470 kts 313°
2026-05-09 15:11 -5.20353 106.29078 33893 ft 469 kts 313°
2026-05-09 15:11 -5.16004 106.24216 33893 ft 467 kts 313°
2026-05-09 15:12 -5.11693 106.19397 33896 ft 466 kts 313°
2026-05-09 15:12 -5.07369 106.14565 33894 ft 464 kts 313°
2026-05-09 15:13 -5.03052 106.09742 33895 ft 463 kts 313°
2026-05-09 15:13 -4.98779 106.04969 33898 ft 462 kts 313°
2026-05-09 15:14 -4.94475 106.00164 33895 ft 461 kts 313°
2026-05-09 15:14 -4.90205 105.95396 33899 ft 462 kts 313°
2026-05-09 15:15 -4.86620 105.91394 33894 ft 463 kts 313°
2026-05-09 15:15 -4.81597 105.85788 33894 ft 465 kts 313°
2026-05-09 15:16 -4.77260 105.80949 33899 ft 467 kts 313°
2026-05-09 15:16 -4.72917 105.76105 33895 ft 468 kts 313°
2026-05-09 15:17 -4.68549 105.71232 33892 ft 470 kts 313°
2026-05-09 15:17 -4.64164 105.66342 33892 ft 472 kts 313°
2026-05-09 15:18 -4.59765 105.61437 33883 ft 473 kts 313°
2026-05-09 15:18 -4.55366 105.56534 33884 ft 473 kts 313°
2026-05-09 15:19 -4.50996 105.51663 33887 ft 472 kts 313°
2026-05-09 15:19 -4.46606 105.46771 33883 ft 471 kts 313°
2026-05-09 15:20 -4.40034 105.39450 33887 ft 470 kts 313°
2026-05-09 15:21 -4.35667 105.34586 33883 ft 468 kts 313°
2026-05-09 15:21 -4.31344 105.29772 33882 ft 467 kts 313°
2026-05-09 15:22 -4.26996 105.24930 33890 ft 466 kts 313°
2026-05-09 15:22 -4.22659 105.20103 33887 ft 465 kts 313°
2026-05-09 15:23 -4.18334 105.15288 33889 ft 464 kts 313°
2026-05-09 15:23 -4.14746 105.11294 33889 ft 463 kts 313°
2026-05-09 15:24 -4.10436 105.06499 33885 ft 463 kts 313°
2026-05-09 15:24 -4.05905 105.01937 33883 ft 461 kts 318°
2026-05-09 15:25 -4.01172 104.97606 33898 ft 460 kts 319°
2026-05-09 15:25 -3.96440 104.93276 33891 ft 461 kts 319°
2026-05-09 15:26 -3.89421 104.86746 33887 ft 461 kts 318°
2026-05-09 15:26 -3.84733 104.82358 33888 ft 461 kts 318°
2026-05-09 15:27 -3.80045 104.77969 33878 ft 461 kts 318°
2026-05-09 15:27 -3.75357 104.73583 33876 ft 461 kts 318°
2026-05-09 15:28 -3.70706 104.69232 33881 ft 460 kts 318°
2026-05-09 15:28 -3.66022 104.64854 33888 ft 459 kts 318°
2026-05-09 15:29 -3.61354 104.60489 33882 ft 459 kts 318°
2026-05-09 15:29 -3.56685 104.56125 33886 ft 459 kts 318°
2026-05-09 15:30 -3.52008 104.51753 33882 ft 459 kts 318°
2026-05-09 15:30 -3.47340 104.47391 33884 ft 459 kts 318°
2026-05-09 15:31 -3.42698 104.43054 33892 ft 459 kts 318°
2026-05-09 15:31 -3.38023 104.38687 33886 ft 459 kts 318°
2026-05-09 15:32 -3.33345 104.34317 33895 ft 460 kts 318°
2026-05-09 15:32 -3.28649 104.29932 33890 ft 462 kts 318°
2026-05-09 15:33 -3.23944 104.25537 33888 ft 464 kts 318°
2026-05-09 15:33 -3.19221 104.21127 33894 ft 465 kts 318°
2026-05-09 15:34 -3.14508 104.16727 33894 ft 466 kts 318°
2026-05-09 15:34 -3.09760 104.12295 33892 ft 467 kts 318°
2026-05-09 15:35 -3.05013 104.07865 33893 ft 467 kts 318°
2026-05-09 15:35 -3.00250 104.03419 33887 ft 467 kts 318°
2026-05-09 15:36 -2.95490 103.98977 33890 ft 467 kts 318°
2026-05-09 15:36 -2.90763 103.94567 33889 ft 466 kts 318°
2026-05-09 15:37 -2.86026 103.90148 33886 ft 465 kts 318°
2026-05-09 15:37 -2.81319 103.85757 33894 ft 464 kts 318°
2026-05-09 15:38 -2.76577 103.81334 33886 ft 464 kts 318°
2026-05-09 15:38 -2.71878 103.76952 33890 ft 463 kts 318°
2026-05-09 15:39 -2.67158 103.72551 33890 ft 463 kts 318°
2026-05-09 15:39 -2.62441 103.68152 33890 ft 463 kts 318°
2026-05-09 15:40 -2.57722 103.63753 33888 ft 464 kts 318°
2026-05-09 15:40 -2.53012 103.59362 33892 ft 464 kts 317°
2026-05-09 15:41 -2.48297 103.54967 33886 ft 465 kts 317°
2026-05-09 15:41 -2.43560 103.50551 33888 ft 465 kts 317°
2026-05-09 15:42 -2.38824 103.46137 33892 ft 466 kts 317°
2026-05-09 15:42 -2.34070 103.41706 33893 ft 466 kts 317°
2026-05-09 15:43 -2.29351 103.37306 33888 ft 467 kts 317°
2026-05-09 15:43 -2.24599 103.32869 33890 ft 467 kts 317°
2026-05-09 15:44 -2.19837 103.28421 33891 ft 467 kts 317°
2026-05-09 15:44 -2.15083 103.23981 33900 ft 467 kts 317°
2026-05-09 15:45 -2.10346 103.19558 33889 ft 468 kts 318°
2026-05-09 15:45 -2.05593 103.15120 33893 ft 467 kts 318°
2026-05-09 15:46 -2.00839 103.10682 33888 ft 468 kts 318°
2026-05-09 15:46 -1.96078 103.06239 33892 ft 467 kts 318°
2026-05-09 15:47 -1.91324 103.01801 33896 ft 467 kts 318°
2026-05-09 15:47 -1.86571 102.97364 33890 ft 467 kts 318°
2026-05-09 15:48 -1.81824 102.92934 33891 ft 467 kts 318°
2026-05-09 15:48 -1.77067 102.88495 33899 ft 467 kts 318°
2026-05-09 15:49 -1.72342 102.84085 33895 ft 468 kts 318°
2026-05-09 15:49 -1.67581 102.79643 33887 ft 469 kts 318°
2026-05-09 15:50 -1.62816 102.75196 33892 ft 468 kts 318°
2026-05-09 15:50 -1.58039 102.70738 33888 ft 468 kts 318°
2026-05-09 15:51 -1.53304 102.66320 33898 ft 468 kts 318°
2026-05-09 15:51 -1.48543 102.61873 33894 ft 468 kts 318°
2026-05-09 15:52 -1.41398 102.55198 33890 ft 468 kts 318°
2026-05-09 15:53 -1.36642 102.50755 33900 ft 468 kts 318°
2026-05-09 15:53 -1.31881 102.46307 33894 ft 468 kts 318°
2026-05-09 15:54 -1.27120 102.41860 33901 ft 468 kts 318°
2026-05-09 15:54 -1.22353 102.37408 33892 ft 469 kts 318°
2026-05-09 15:55 -1.17625 102.32991 33890 ft 468 kts 318°
2026-05-09 15:55 -1.12858 102.28539 33889 ft 468 kts 318°
2026-05-09 15:56 -1.08098 102.24093 33885 ft 468 kts 318°
2026-05-09 15:56 -1.03345 102.19655 33887 ft 468 kts 318°
2026-05-09 15:57 -0.98578 102.15203 33885 ft 468 kts 318°
2026-05-09 15:57 -0.93852 102.10790 33883 ft 468 kts 318°
2026-05-09 15:58 -0.89095 102.06348 33881 ft 468 kts 318°
2026-05-09 15:58 -0.84334 102.01902 33882 ft 468 kts 318°
2026-05-09 15:59 -0.79561 101.97445 33878 ft 468 kts 318°
2026-05-09 15:59 -0.74827 101.93026 33876 ft 469 kts 318°
2026-05-09 16:00 -0.70063 101.88578 33877 ft 469 kts 318°
2026-05-09 16:00 -0.65291 101.84122 33872 ft 469 kts 318°
2026-05-09 16:01 -0.60524 101.79672 33872 ft 469 kts 318°
2026-05-09 16:01 -0.55740 101.75206 33865 ft 469 kts 318°
2026-05-09 16:02 -0.51006 101.70787 33867 ft 469 kts 318°
2026-05-09 16:02 -0.43857 101.64113 33867 ft 468 kts 318°
2026-05-09 16:03 -0.39091 101.59663 33862 ft 468 kts 318°
2026-05-09 16:03 -0.34323 101.55213 33854 ft 467 kts 318°
2026-05-09 16:04 -0.29576 101.50782 33855 ft 467 kts 318°
2026-05-09 16:04 -0.24833 101.46355 33858 ft 466 kts 318°
2026-05-09 16:05 -0.20100 101.41936 33864 ft 466 kts 318°
2026-05-09 16:05 -0.15392 101.37542 33856 ft 466 kts 318°
2026-05-09 16:06 -0.10657 101.33122 33862 ft 466 kts 318°
2026-05-09 16:06 -0.05911 101.28692 33859 ft 466 kts 318°
2026-05-09 16:07 -0.01164 101.24261 33851 ft 466 kts 318°
2026-05-09 16:07 0.03550 101.19861 33856 ft 467 kts 318°
2026-05-09 16:08 0.08303 101.15424 33847 ft 468 kts 318°
2026-05-09 16:08 0.13067 101.10977 33853 ft 468 kts 318°
2026-05-09 16:09 0.17034 101.07274 33849 ft 469 kts 318°
2026-05-09 16:09 0.21802 101.02824 33851 ft 469 kts 318°
2026-05-09 16:10 0.27364 100.97632 33849 ft 470 kts 318°
2026-05-09 16:10 0.31346 100.93915 33858 ft 470 kts 318°
2026-05-09 16:11 0.36138 100.89442 33856 ft 471 kts 319°
2026-05-09 16:11 0.40930 100.84969 33856 ft 471 kts 319°
2026-05-09 16:12 0.45714 100.80502 33857 ft 471 kts 319°
2026-05-09 16:12 0.50501 100.76033 33859 ft 471 kts 319°
2026-05-09 16:13 0.55081 100.71758 33858 ft 470 kts 319°
2026-05-09 16:13 0.59877 100.67281 33858 ft 470 kts 319°
2026-05-09 16:14 0.64620 100.62852 33860 ft 469 kts 319°
2026-05-09 16:14 0.69391 100.58398 33863 ft 469 kts 319°
2026-05-09 16:15 0.74160 100.53946 33871 ft 468 kts 319°
2026-05-09 16:15 0.78929 100.49493 33863 ft 468 kts 319°
2026-05-09 16:16 0.83667 100.45068 33876 ft 468 kts 319°
2026-05-09 16:16 0.88429 100.40623 33868 ft 468 kts 319°
2026-05-09 16:17 0.93194 100.36173 33872 ft 469 kts 319°
2026-05-09 16:17 0.97970 100.31713 33875 ft 469 kts 319°
2026-05-09 16:18 1.02707 100.27289 33873 ft 469 kts 319°
2026-05-09 16:18 1.07478 100.22833 33881 ft 469 kts 319°
2026-05-09 16:19 1.12258 100.18370 33870 ft 469 kts 319°
2026-05-09 16:19 1.14621 100.16163 33585 ft 462 kts 319°
2026-05-09 16:19 1.16949 100.13986 33332 ft 453 kts 319°
2026-05-09 16:20 1.19233 100.11851 33077 ft 447 kts 319°
2026-05-09 16:20 1.21461 100.09769 32831 ft 443 kts 319°
2026-05-09 16:20 1.23739 100.07642 32595 ft 442 kts 319°
2026-05-09 16:20 1.25957 100.05572 32356 ft 440 kts 319°
2026-05-09 16:21 1.28188 100.03489 32106 ft 439 kts 319°
2026-05-09 16:21 1.30426 100.01398 31872 ft 437 kts 319°
2026-05-09 16:21 1.32621 99.99348 31639 ft 435 kts 319°
2026-05-09 16:21 1.34832 99.97283 31403 ft 434 kts 319°
2026-05-09 16:22 1.37038 99.95221 31170 ft 433 kts 319°
2026-05-09 16:22 1.39232 99.93172 30949 ft 432 kts 319°
2026-05-09 16:22 1.41422 99.91127 30721 ft 430 kts 319°
2026-05-09 16:22 1.43610 99.89082 30484 ft 429 kts 319°
2026-05-09 16:23 1.45788 99.87047 30265 ft 428 kts 319°
2026-05-09 16:23 1.47960 99.85018 30050 ft 426 kts 319°
2026-05-09 16:23 1.50122 99.82998 29793 ft 425 kts 319°
2026-05-09 16:23 1.52271 99.80989 29529 ft 423 kts 319°
2026-05-09 16:24 1.54422 99.78980 29275 ft 421 kts 319°
2026-05-09 16:24 1.56555 99.76986 29017 ft 420 kts 319°
2026-05-09 16:24 1.58682 99.74998 28760 ft 418 kts 319°
2026-05-09 16:24 1.60804 99.73015 28507 ft 415 kts 319°
2026-05-09 16:25 1.62908 99.71049 28244 ft 410 kts 319°
2026-05-09 16:25 1.64975 99.69116 27989 ft 405 kts 319°
2026-05-09 16:25 1.67024 99.67201 27735 ft 401 kts 319°
2026-05-09 16:25 1.69065 99.65293 27508 ft 403 kts 319°
2026-05-09 16:26 1.71124 99.63369 27271 ft 406 kts 319°
2026-05-09 16:26 1.73165 99.61462 27035 ft 405 kts 319°
2026-05-09 16:26 1.75217 99.59544 26793 ft 403 kts 319°
2026-05-09 16:26 1.77276 99.57648 26561 ft 400 kts 322°
2026-05-09 16:27 1.79614 99.56167 26325 ft 398 kts 335°
2026-05-09 16:27 1.82089 99.54937 26101 ft 397 kts 335°
2026-05-09 16:27 1.84568 99.53716 25881 ft 397 kts 335°
2026-05-09 16:27 1.87039 99.52488 25648 ft 396 kts 335°
2026-05-09 16:28 1.89499 99.51250 25426 ft 395 kts 335°
2026-05-09 16:28 1.91936 99.50011 25197 ft 393 kts 334°
2026-05-09 16:28 1.94368 99.48767 24971 ft 391 kts 334°
2026-05-09 16:28 1.96782 99.47527 24746 ft 388 kts 334°
2026-05-09 16:29 1.99176 99.46295 24527 ft 386 kts 334°
2026-05-09 16:29 2.01532 99.45081 24313 ft 384 kts 334°
2026-05-09 16:29 2.03907 99.43858 24102 ft 383 kts 334°
2026-05-09 16:29 2.06289 99.42631 23883 ft 382 kts 334°
2026-05-09 16:30 2.08625 99.41428 23669 ft 381 kts 334°
2026-05-09 16:30 2.10975 99.40218 23449 ft 380 kts 334°
2026-05-09 16:30 2.13331 99.39005 23184 ft 379 kts 334°
2026-05-09 16:30 2.15681 99.37795 22930 ft 379 kts 334°
2026-05-09 16:31 2.18021 99.36590 22681 ft 378 kts 334°
2026-05-09 16:31 2.20358 99.35386 22434 ft 378 kts 334°
2026-05-09 16:31 2.22694 99.34183 22199 ft 377 kts 334°
2026-05-09 16:31 2.25028 99.32981 21939 ft 377 kts 334°
2026-05-09 16:32 2.27350 99.31784 21708 ft 375 kts 334°
2026-05-09 16:32 2.28889 99.30992 21532 ft 375 kts 334°
2026-05-09 16:32 2.31980 99.29399 21214 ft 372 kts 334°
2026-05-09 16:32 2.34245 99.28232 20974 ft 371 kts 334°
2026-05-09 16:33 2.36532 99.27053 20735 ft 368 kts 334°
2026-05-09 16:33 2.38805 99.25882 20485 ft 366 kts 333°
2026-05-09 16:33 2.41065 99.24717 20247 ft 364 kts 333°
2026-05-09 16:33 2.43316 99.23569 20016 ft 361 kts 336°
2026-05-09 16:34 2.45690 99.22814 19794 ft 358 kts 350°
2026-05-09 16:34 2.48139 99.22365 19556 ft 357 kts 351°
2026-05-09 16:34 2.50584 99.21927 19334 ft 356 kts 351°
2026-05-09 16:34 2.53019 99.21482 19112 ft 356 kts 350°
2026-05-09 16:35 2.55450 99.21026 18882 ft 355 kts 350°
2026-05-09 16:35 2.57877 99.20562 18660 ft 354 kts 349°
2026-05-09 16:35 2.60300 99.20093 18434 ft 354 kts 349°
2026-05-09 16:35 2.62707 99.19623 18198 ft 350 kts 349°
2026-05-09 16:36 2.65068 99.19160 17872 ft 340 kts 349°
2026-05-09 16:36 2.71770 99.17841 16874 ft 318 kts 349°
2026-05-09 16:37 2.73933 99.17416 16556 ft 315 kts 349°
2026-05-09 16:37 2.76082 99.16993 16246 ft 318 kts 349°
2026-05-09 16:37 2.78306 99.16556 15940 ft 333 kts 349°
2026-05-09 16:37 2.80602 99.16105 15543 ft 335 kts 349°
2026-05-09 16:38 2.82872 99.15658 15201 ft 327 kts 349°
2026-05-09 16:38 2.85077 99.15224 14862 ft 320 kts 349°
2026-05-09 16:38 2.87240 99.14798 14529 ft 313 kts 349°
2026-05-09 16:38 2.89360 99.14381 14212 ft 308 kts 349°
2026-05-09 16:39 2.91456 99.13968 13902 ft 307 kts 349°
2026-05-09 16:39 2.93571 99.13552 13567 ft 314 kts 349°
2026-05-09 16:39 2.95756 99.13123 13208 ft 325 kts 349°
2026-05-09 16:39 2.97903 99.12430 12821 ft 326 kts 329°
2026-05-09 16:40 2.99626 99.10996 12558 ft 320 kts 314°
2026-05-09 16:40 3.01185 99.09417 12271 ft 317 kts 314°
2026-05-09 16:42 3.12073 98.98522 10151 ft 306 kts 314°
2026-05-09 16:42 3.13552 98.97050 9989 ft 295 kts 314°
2026-05-09 16:42 3.14997 98.95611 9683 ft 291 kts 314°
2026-05-09 16:42 3.16421 98.94193 9380 ft 286 kts 314°
2026-05-09 16:43 3.17822 98.92798 9084 ft 282 kts 314°
2026-05-09 16:43 3.19198 98.91427 8792 ft 277 kts 314°
2026-05-09 16:43 3.20554 98.90077 8510 ft 273 kts 314°
2026-05-09 16:43 3.21889 98.88748 8235 ft 269 kts 314°
2026-05-09 16:44 3.23204 98.87437 7960 ft 265 kts 314°
2026-05-09 16:44 3.24503 98.86143 7689 ft 261 kts 314°
2026-05-09 16:44 3.25784 98.84867 7419 ft 258 kts 314°
2026-05-09 16:44 3.27056 98.83600 7169 ft 259 kts 314°
2026-05-09 16:45 3.27908 98.82752 7003 ft 262 kts 315°
2026-05-09 16:45 3.29668 98.81000 6626 ft 271 kts 315°
2026-05-09 16:45 3.30877 98.79795 6380 ft 272 kts 315°
2026-05-09 16:45 3.32236 98.78475 6033 ft 270 kts 316°
2026-05-09 16:46 3.33586 98.77191 5745 ft 265 kts 316°
2026-05-09 16:46 3.34905 98.75939 5462 ft 258 kts 316°
2026-05-09 16:46 3.36188 98.74718 5201 ft 251 kts 316°
2026-05-09 16:46 3.37440 98.73525 4954 ft 246 kts 316°
2026-05-09 16:47 3.38683 98.72340 4729 ft 248 kts 316°
2026-05-09 16:47 3.39941 98.71139 4482 ft 255 kts 316°
2026-05-09 16:47 3.41012 98.70116 4369 ft 259 kts 316°
2026-05-09 16:47 3.42396 98.68997 4163 ft 252 kts 335°
2026-05-09 16:48 3.44053 98.68767 4058 ft 236 kts 14°
2026-05-09 16:48 3.45446 98.69499 3994 ft 223 kts 37°
2026-05-09 16:48 3.46712 98.70422 3905 ft 228 kts 36°
2026-05-09 16:48 3.47986 98.71380 3663 ft 234 kts 39°
2026-05-09 16:49 3.49211 98.72476 3429 ft 238 kts 44°
2026-05-09 16:49 3.50386 98.73637 3180 ft 238 kts 45°
2026-05-09 16:49 3.51543 98.74801 2946 ft 233 kts 45°
2026-05-09 16:50 3.53782 98.77031 2353 ft 223 kts 45°
2026-05-09 16:50 3.54852 98.78092 2058 ft 210 kts 45°
2026-05-09 16:50 3.55846 98.79088 1826 ft 193 kts 45°
2026-05-09 16:50 3.56767 98.80013 1552 ft 183 kts 45°
2026-05-09 16:51 3.57654 98.80902 1323 ft 181 kts 45°
2026-05-09 16:51 3.58545 98.81795 1085 ft 178 kts 45°
2026-05-09 16:51 3.59384 98.82635 876 ft 162 kts 45°
2026-05-09 16:51 3.60122 98.83375 719 ft 148 kts 45°
2026-05-09 16:52 3.60853 98.84107 549 ft 146 kts 45°
2026-05-09 16:52 3.61560 98.84817 356 ft 145 kts 45°
2026-05-09 16:52 3.62277 98.85539 140 ft 144 kts 46°
2026-05-09 16:52 3.62948 98.86240 34 ft 133 kts 46°
2026-05-09 16:53 3.63490 98.86762 31 ft 78 kts 44°
2026-05-09 16:53 3.63742 98.87014 33 ft 31 kts 44°
2026-05-09 16:53 3.63870 98.87140 32 ft 25 kts 44°
2026-05-09 16:53 3.63984 98.87254 31 ft 19 kts 45°
2026-05-09 16:54 3.64067 98.87353 30 ft 18 kts 65°
2026-05-09 16:54 3.64097 98.87456 30 ft 14 kts 75°
2026-05-09 16:54 3.64120 98.87546 30 ft 13 kts 76°
2026-05-09 16:54 3.64143 98.87633 31 ft 13 kts 69°
2026-05-09 16:55 3.64188 98.87708 30 ft 12 kts 52°
2026-05-09 16:55 3.64246 98.87769 31 ft 12 kts 45°
2026-05-09 16:55 3.64285 98.87808 32 ft 9 kts 45°
2026-05-09 16:55 3.64304 98.87826 32 ft 3 kts 45°
2026-05-09 16:56 3.64318 98.87841 32 ft 3 kts 45°
2026-05-09 16:56 3.64332 98.87855 32 ft 5 kts 45°
2026-05-09 16:56 3.64380 98.87902 32 ft 9 kts 45°
2026-05-09 16:56 3.64412 98.87936 32 ft 10 kts 52°
2026-05-09 16:57 3.64392 98.88008 32 ft 10 kts 161°
2026-05-09 16:57 3.64332 98.87987 32 ft 9 kts 203°
2026-05-09 16:57 3.64290 98.87992 30 ft 9 kts 145°
2026-05-09 16:57 3.64246 98.88036 32 ft 9 kts 135°
2026-05-09 16:58 3.64203 98.88079 32 ft 9 kts 135°
2026-05-09 16:58 3.64162 98.88120 32 ft 8 kts 135°
2026-05-09 16:58 3.64110 98.88142 32 ft 8 kts 185°
2026-05-09 16:58 3.64068 98.88107 32 ft 8 kts 227°
2026-05-09 16:59 3.64030 98.88069 32 ft 8 kts 224°
2026-05-09 16:59 3.63986 98.88025 32 ft 10 kts 225°
2026-05-09 16:59 3.63933 98.87975 32 ft 10 kts 217°
2026-05-09 16:59 3.63870 98.87976 30 ft 10 kts 143°
2026-05-09 17:00 3.63822 98.88022 32 ft 9 kts 135°
2026-05-09 17:00 3.63776 98.88068 32 ft 9 kts 135°
2026-05-09 17:00 3.63732 98.88111 32 ft 7 kts 135°
2026-05-09 17:00 3.63696 98.88127 32 ft 1 kts 193°
2026-05-09 17:01 3.63694 98.88123 32 ft 1 kts 244°
2026-05-09 17:01 3.63688 98.88113 32 ft 3 kts 237°
2026-05-09 17:01 3.63673 98.88097 32 ft 4 kts 225°
2026-05-09 17:01 3.63660 98.88084 32 ft 1 kts 225°
2026-05-09 17:02 3.63657 98.88080 32 ft 0 kts 225°
2026-05-09 17:10 3.63656 98.88080 30 ft 0 kts 225°
2026-05-09 17:12 3.63658 98.88081 32 ft 0 kts 225°
2026-05-09 17:12 3.63653 98.88077 30 ft 0 kts 225°
2026-05-09 17:12 3.63654 98.88078 30 ft 0 kts 225°
2026-05-09 17:12 3.63655 98.88079 30 ft 0 kts 225°
2026-05-09 17:13 3.63657 98.88081 32 ft 0 kts 225°
2026-05-09 17:13 3.63658 98.88081 32 ft 0 kts 225°
2026-05-09 17:13 3.63657 98.88081 32 ft 0 kts 225°
2026-05-09 17:15 3.63647 98.88071 31 ft 0 kts 225°